International Skating Union - Official Site

ISU European Speed Skating Championships 2015
January 10-11, 2015

Draw | Lap Times | Index | Classification

Referee: Debora  SIGHEL  (ITA)
Starter: Janny  SMEGEN  (NED)
StartTime: EndTime: Air Temp: Ice Temp: Humidity:
18:00 18:36 11.1℃ -5.6℃ 34.5%
Result 5000m Ladies
Rankings as of Jan 11 2015 6:38PM
Rank: No.: Name: Nation: Time: Behind: Points:
1 3 Martina  Sábliková CZE CZE 7:00.70200m - 21.29 - (21.2)
600m - 54.44 - (33.1)
1000m - 1:28.15 - (33.7)
1400m - 2:01.67 - (33.5)
1800m - 2:34.95 - (33.2)
2200m - 3:08.16 - (33.2)
2600m - 3:41.27 - (33.1)
3000m - 4:15.00 - (33.7)
3400m - 4:48.08 - (33.0)
3800m - 5:21.57 - (33.4)
4200m - 5:54.80 - (33.2)
4600m - 6:27.94 - (33.1)
5000m - 7:00.70 - (32.7)
42.070
2 12 Ireen  Wüst NED NED 7:05.63200m - 20.84 - (20.8)
600m - 53.63 - (32.7)
1000m - 1:27.09 - (33.4)
1400m - 2:00.93 - (33.8)
1800m - 2:34.73 - (33.8)
2200m - 3:08.11 - (33.3)
2600m - 3:41.94 - (33.8)
3000m - 4:15.40 - (33.4)
3400m - 4:49.43 - (34.0)
3800m - 5:23.38 - (33.9)
4200m - 5:57.55 - (34.1)
4600m - 6:31.51 - (33.9)
5000m - 7:05.63 - (34.1)
4.93 42.563
3 18 Olga  Graf RUS RUS 7:09.10200m - 21.52 - (21.5)
600m - 54.22 - (32.7)
1000m - 1:27.70 - (33.4)
1400m - 2:01.57 - (33.8)
1800m - 2:35.28 - (33.7)
2200m - 3:09.02 - (33.7)
2600m - 3:43.00 - (33.9)
3000m - 4:17.10 - (34.1)
3400m - 4:51.35 - (34.2)
3800m - 5:25.56 - (34.2)
4200m - 5:59.84 - (34.2)
4600m - 6:34.48 - (34.6)
5000m - 7:09.10 - (34.6)
8.40 42.910
4 9 Linda  de Vries NED NED 7:09.52200m - 20.16 - (20.1)
600m - 52.91 - (32.7)
1000m - 1:26.32 - (33.4)
1400m - 2:00.08 - (33.7)
1800m - 2:33.79 - (33.7)
2200m - 3:07.58 - (33.7)
2600m - 3:41.56 - (33.9)
3000m - 4:15.63 - (34.0)
3400m - 4:49.78 - (34.1)
3800m - 5:24.16 - (34.3)
4200m - 5:58.91 - (34.7)
4600m - 6:34.07 - (35.1)
5000m - 7:09.52 - (35.4)
8.82 42.952
5 11 Jorien  Voorhuis NED NED 7:14.00200m - 20.83 - (20.8)
600m - 54.23 - (33.4)
1000m - 1:28.41 - (34.1)
1400m - 2:02.68 - (34.2)
1800m - 2:36.95 - (34.2)
2200m - 3:11.12 - (34.1)
2600m - 3:45.38 - (34.2)
3000m - 4:19.68 - (34.3)
3400m - 4:54.27 - (34.5)
3800m - 5:28.88 - (34.6)
4200m - 6:03.63 - (34.7)
4600m - 6:38.56 - (34.9)
5000m - 7:14.00 - (35.4)
13.30 43.400
6 21 Natalya  Voronina RUS RUS 7:20.66200m - 21.22 - (21.2)
600m - 55.50 - (34.2)
1000m - 1:31.06 - (35.5)
1400m - 2:06.32 - (35.2)
1800m - 2:41.22 - (34.9)
2200m - 3:15.94 - (34.7)
2600m - 3:51.11 - (35.1)
3000m - 4:26.17 - (35.0)
3400m - 5:01.20 - (35.0)
3800m - 5:36.02 - (34.8)
4200m - 6:10.85 - (34.8)
4600m - 6:46.18 - (35.3)
5000m - 7:20.66 - (34.4)
19.96 44.066
7 14 Ida  Njåtun NOR NOR 7:21.82200m - 20.17 - (20.1)
600m - 53.16 - (32.9)
1000m - 1:27.16 - (34.0)
1400m - 2:01.43 - (34.2)
1800m - 2:35.72 - (34.2)
2200m - 3:10.32 - (34.6)
2600m - 3:45.15 - (34.8)
3000m - 4:20.36 - (35.2)
3400m - 4:56.05 - (35.6)
3800m - 5:32.07 - (36.0)
4200m - 6:08.43 - (36.3)
4600m - 6:45.14 - (36.7)
5000m - 7:21.82 - (36.6)
21.12 44.182
8 20 Yuliya  Skokova RUS RUS 7:58.60200m - 21.67 - (21.6)
600m - 56.89 - (35.2)
1000m - 1:32.79 - (35.9)
1400m - 2:08.93 - (36.1)
1800m - 2:44.95 - (36.0)
2200m - 3:33.92 - (48.9)
2600m - 4:23.26 - (49.3)
3000m - 4:58.26 - (35.0)
3400m - 5:34.22 - (35.9)
3800m - 6:10.74 - (36.5)
4200m - 6:47.11 - (36.3)
4600m - 7:22.72 - (35.6)
5000m - 7:58.60 - (35.8)
57.90 47.860